Location: Delettes
(50.6178°N, 2.2123°E)
Time: 22:46:10
(UTC+00:00)

STARLINK-1024 - Pass Details

Date: 27 February 2020
Orbit: 549 x 550 km, 53.0° (Epoch: 05 April)

Event Time Altitude Azimuth Distance (km) Brightness Sun altitude
Rises 19:56:14 0° 274° (W) 2,721 8.5 -24.0°
Reaches altitude 10° 19:58:30 10° 278° (W) 1,828 7.3 -24.4°
Enters shadow 20:02:14 58° 331° (NNW) 649 4.1 -24.9°
